Home > Weather > Tampa > Past weeks

Flag for USA Past Weather in Tampa, Florida, USA — Yesterday and Last 2 Weeks

Now
82 °F

Clear.


Feels Like: 91 °F
Forecast: 78 / 90 °F
Wind: 9 mph from East

Location: Tampa, Peter O Knight Airport

Current Time: Aug 29, 2016 at 12:04:35 AM

Latest Report: Aug 28, 2016 at 11:15 PM


Visibility: 10 mi

Pressure: 29.96 "Hg

Humidity: 84%

Dew Point: 77 °F

Location of TampaLocation

Past Weather in Tampa — Graph

°F

Tampa Temperature Yesterday

Maximum temperature yesterday: 97 °F (at 2:15 PM)
Minimum temperature yesterday: 79 °F (at 2:55 AM)
Average temperature yesterday: 86 °F

High & Low Weather Summary for the Past Weeks

 TemperatureHumidityPressure
High99 °F (Aug 23, 2:55 PM)100% (Aug 15, 7:15 AM)30.18 "Hg (Aug 15, 7:15 AM)
Low79 °F (Aug 14, 11:15 PM)42% (Aug 22, 3:55 PM)29.88 "Hg (Aug 28, 5:15 PM)
Average86 °F78%30.05 "Hg
* Reported Aug 13 11:15 PM — Aug 28 11:15 PM, Tampa, Weather by CustomWeather, © 2016

Note: Actual official high and low records may vary slightly from our data, if they occured in-between our weather recording intervals... More about our weather records

Advertising

Tampa Weather History for the Previous 24 Hours

Scroll right to see more
 ConditionsComfort  
Time TempWeatherWind HumidityBarometerVisibility
11:15 PM
Sun, Aug 28
82 °FClear.9 mph84%29.96 "Hg10 mi
10:15 PM82 °FClear.8 mph89%29.96 "Hg10 mi
9:55 PM84 °FClear.9 mph84%29.95 "Hg10 mi
9:35 PM82 °FClear.7 mph89%29.94 "Hg10 mi
9:15 PM84 °FClear.7 mph84%29.93 "Hg10 mi
8:55 PM84 °FClear.8 mph84%29.93 "Hg10 mi
8:15 PM86 °FScattered clouds.9 mph79%29.93 "Hg10 mi
7:55 PM84 °FSunny.5 mph84%29.92 "Hg10 mi
7:35 PM86 °FScattered clouds.7 mph79%29.92 "Hg10 mi
7:15 PM82 °FSunny.6 mph89%29.92 "Hg10 mi
6:55 PM82 °FScattered clouds.7 mph89%29.91 "Hg10 mi
6:15 PM86 °FLight rain. Broken clouds.9 mph79%29.91 "Hg10 mi
5:55 PM86 °FHeavy rain. Broken clouds.7 mph75%29.90 "Hg2 mi
5:15 PM93 °FSunny.6 mph59%29.88 "Hg10 mi
4:55 PM95 °FSunny.8 mph56%29.89 "Hg10 mi
4:15 PM90 °FScattered clouds.6 mph63%29.89 "Hg10 mi
3:55 PM95 °FScattered clouds.13 mph56%29.90 "Hg10 mi
3:35 PM95 °FSunny.12 mph60%29.90 "Hg10 mi
3:15 PM95 °FScattered clouds.13 mph56%29.91 "Hg10 mi
2:55 PM97 °FSunny.12 mph53%29.92 "Hg10 mi
2:15 PM97 °FSunny.9 mph53%29.93 "Hg10 mi
1:55 PM95 °FSunny.13 mph56%29.94 "Hg10 mi
1:15 PM95 °FSunny.13 mph56%29.95 "Hg10 mi
12:55 PM95 °FSunny.15 mph56%29.96 "Hg10 mi
12:35 PM91 °FScattered clouds.13 mph63%29.97 "Hg10 mi
12:15 PM91 °FScattered clouds.14 mph67%29.98 "Hg10 mi
11:55 AM91 °FScattered clouds.10 mph67%29.98 "Hg10 mi
11:35 AM90 °FScattered clouds.13 mph71%29.98 "Hg10 mi
11:15 AM91 °FScattered clouds.13 mph67%29.99 "Hg10 mi
10:55 AM90 °FBroken clouds.13 mph75%29.99 "Hg10 mi
10:35 AM88 °FBroken clouds.13 mph79%29.99 "Hg10 mi
10:15 AM88 °FPartly sunny.14 mph79%29.99 "Hg10 mi
9:55 AM88 °FScattered clouds.12 mph79%29.99 "Hg10 mi
9:35 AM86 °FScattered clouds.12 mph84%29.99 "Hg10 mi
9:15 AM86 °FScattered clouds.10 mph84%29.99 "Hg10 mi
8:55 AM82 °FScattered clouds.12 mph94%29.99 "Hg10 mi
8:35 AM82 °FPartly sunny.9 mph94%29.98 "Hg10 mi
8:15 AM81 °FLow clouds.9 mph100%29.98 "Hg10 mi
7:55 AM81 °FLow clouds.9 mph100%29.98 "Hg10 mi
7:15 AM81 °FLow clouds.8 mph94%29.97 "Hg10 mi
6:55 AM81 °FPassing clouds.9 mph94%29.96 "Hg10 mi
6:15 AM81 °FPassing clouds.9 mph94%29.96 "Hg10 mi
5:55 AM81 °FPassing clouds.9 mph94%29.95 "Hg10 mi
5:15 AM81 °FPassing clouds.8 mph94%29.95 "Hg10 mi
4:55 AM81 °FPassing clouds.9 mph94%29.95 "Hg10 mi
4:35 AM81 °FClear.9 mph94%29.95 "Hg10 mi
4:15 AM81 °FClear.9 mph94%29.95 "Hg10 mi
3:55 AM81 °FClear.7 mph94%29.94 "Hg10 mi
3:35 AM81 °FClear.8 mph94%29.95 "Hg10 mi
3:15 AM79 °FClear.6 mph100%29.94 "Hg10 mi
2:55 AM79 °FClear.6 mph100%29.94 "Hg10 mi
2:15 AM81 °FClear.3 mph94%29.96 "Hg10 mi
1:55 AM81 °FClear.7 mph94%29.96 "Hg10 mi
1:35 AM81 °FClear.9 mph94%29.96 "Hg10 mi
1:15 AM81 °FClear.10 mph94%29.96 "Hg10 mi
12:55 AM81 °FClear.9 mph94%29.96 "Hg10 mi
12:15 AM81 °FClear.9 mph94%29.96 "Hg10 mi
Weather by CustomWeather, © 2016

See weather overviewHow to use our weather pages